Theta_e
281 281 281 281 281 282 281 280 280 280 281 280 280 280 281 281 281 281 281 282 282 281 282 282 282 282 283 283 284 284 284 284 284 285 285 285 285 285 286 285 285 285
280 281 281 280 280 281 280 280 279 280 280 280 280 280 280 281 281 280 280 280 281 280 281 281 281 281 281 281 282 282 282 283 283 285 284 284 284 285 285 285 285 285
279 279 279 279 279 279 279 279 279 279 279 279 279 279 280 280 280 279 279 280 279 280 280 280 280 280 280 280 280 280 280 281 281 283 283 283 284 284 284 284 284 284
279 279 278 278 279 278 279 278 278 278 278 279 279 279 279 280 279 278 278 279 278 279 279 278 279 279 279 279 279 279 279 279 280 280 281 282 283 284 284 284 284 284
279 279 279 279 278 278 278 278 278 279 279 279 279 279 279 278 278 278 278 277 277 278 278 278 278 278 278 278 278 279 279 279 279 279 279 279 280 281 282 283 283 283
278 278 278 278 278 277 278 277 278 278 278 278 279 279 279 279 279 279 279 279 279 278 278 277 277 277 278 277 277 277 278 278 278 279 279 279 279 280 281 281 281 281
278 277 277 277 277 277 277 277 278 278 278 278 278 278 278 278 278 278 278 278 278 279 278 278 278 278 278 277 277 277 277 277 277 278 278 278 279 279 280 280 280 279
277 276 277 276 277 277 277 277 277 277 277 277 277 277 277 277 277 278 278 278 278 278 278 278 277 278 278 277 277 277 277 278 278 277 276 277 277 277 278 279 279 279
275 276 276 275 276 276 276 276 276 276 276 276 276 276 276 276 276 276 276 276 277 277 277 277 277 277 277 277 277 277 276 277 277 276 276 276 276 276 277 277 278 278
275 275 275 275 275 275 275 275 276 276 276 276 276 276 276 277 276 276 276 276 276 276 276 276 276 276 276 276 276 276 276 276 276 276 276 276 276 276 276 276 276 277
275 274 274 275 275 275 275 275 275 275 275 275 275 275 276 275 276 275 276 275 275 275 275 275 276 276 276 276 276 276 276 276 276 276 276 276 276 276 277 276 276 276
275 275 275 274 275 275 275 275 275 275 275 275 275 275 275 275 275 275 275 274 274 274 274 274 275 275 275 275 276 276 276 276 276 276 276 276 276 276 276 276 276 276
274 274 274 274 274 274 274 274 274 274 274 274 274 274 273 273 273 273 273 273 273 274 274 274 274 275 275 275 275 275 275 275 275 275 275 276 276 276 276 277 277 277
274 274 274 274 274 274 273 273 273 273 273 273 272 272 272 272 272 272 272 272 273 273 273 274 274 274 274 274 274 275 275 275 275 276 276 276 276 276 277 277 277 277
273 274 273 273 273 272 272 272 271 271 271 271 270 270 271 271 271 271 271 271 272 272 272 272 272 272 273 273 273 274 275 275 275 275 275 275 275 276 276 276 276 277
273 272 272 272 271 271 270 270 270 269 269 268 268 268 268 269 269 270 270 269 269 269 269 269 270 270 272 274 276 274 273 273 273 273 274 274 274 274 275 275 276 276
271 271 270 269 270 269 268 267 268 267 266 266 266 266 267 267 267 267 267 267 267 267 266 267 268 268 272 274 275 276 274 272 272 273 273 273 273 273 273 274 274 275
270 269 268 267 267 266 266 265 265 264 264 265 265 265 266 265 265 265 265 265 265 265 265 265 265 269 271 273 274 275 275 272 272 271 271 272 272 272 272 273 273 274
267 266 265 265 265 264 264 264 263 263 263 263 263 264 264 264 264 264 264 264 264 264 263 264 264 267 270 272 273 274 275 274 271 271 271 271 271 271 271 271 272 272
266 263 263 263 263 263 263 262 262 262 262 262 263 263 263 262 262 262 263 263 263 263 263 263 263 266 270 272 273 274 274 274 271 270 270 270 269 269 269 269 269 269
264 263 263 263 262 262 261 261 261 261 262 262 262 262 261 261 261 261 261 262 262 262 262 262 262 268 270 272 272 273 274 273 270 269 269 268 268 268 268 268 269 269
263 262 262 261 262 261 260 261 261 260 260 261 261 261 261 261 261 261 261 260 261 261 261 260 261 268 269 270 272 273 274 270 268 268 267 267 267 268 268 269 269 269
263 262 261 260 260 260 259 259 260 260 260 260 259 260 260 260 260 260 260 260 260 260 260 260 260 264 269 270 271 272 271 267 267 267 267 267 267 267 268 268 269 269
262 260 259 259 259 258 259 260 260 260 259 259 259 259 259 259 259 259 259 259 259 259 259 259 260 264 268 270 271 271 271 268 267 266 266 267 267 267 268 268 268 270
260 260 259 258 258 259 258 258 259 259 259 259 259 258 259 259 259 258 258 258 259 259 262 261 260 262 267 269 270 271 269 268 268 267 266 266 267 267 267 267 268 269
259 258 258 258 258 258 258 258 258 258 258 258 258 258 258 258 258 258 257 258 258 259 259 260 259 260 262 268 270 271 272 269 268 267 266 266 267 267 266 267 268 268
Wind_Speed
8 7 7 7 6 5 5 6 5 6 5 6 6 6 6 5 6 7 7 7 8 8 9 9 9 9 8 8 7 6 5 6 6 6 7 6 6 5 7 6 5 5
7 6 5 4 4 4 4 3 3 4 5 4 4 4 4 4 5 4 5 6 6 6 7 7 8 8 9 8 9 8 8 6 7 4 6 8 7 6 6 6 5 5
5 5 6 5 4 4 4 3 3 3 4 4 3 4 5 4 5 4 4 4 5 6 6 5 6 6 6 6 7 7 8 9 9 7 6 6 6 6 7 6 6 5
4 4 4 4 4 4 3 4 4 3 3 5 4 4 3 4 4 4 4 4 5 5 5 4 5 5 5 5 6 6 7 7 7 7 7 7 6 5 6 5 6 7
5 5 4 5 4 4 4 4 5 5 5 5 4 5 5 5 4 4 4 4 3 4 4 5 4 4 4 5 4 6 6 7 7 7 8 8 8 7 7 6 7 7
3 2 2 2 3 3 5 4 4 5 6 7 7 7 7 8 9 11 12 12 10 8 7 4 4 4 4 4 4 4 5 6 6 6 7 8 9 8 7 7 8 9
1 2 4 3 4 4 5 5 5 5 6 5 6 8 7 9 9 8 8 8 10 11 12 13 13 12 8 6 5 5 5 5 5 5 7 7 7 10 8 8 9 9
2 1 3 4 5 4 6 5 5 6 5 5 6 6 5 7 7 8 8 9 9 9 9 9 9 10 11 11 12 12 10 6 7 7 7 8 7 8 8 7 9 10
2 3 3 4 5 4 5 5 5 5 4 5 6 5 4 4 5 5 6 5 6 7 8 9 10 11 10 10 11 11 12 12 10 9 9 9 9 9 9 8 9 9
3 3 4 4 4 4 5 5 5 4 5 5 5 6 8 7 6 7 7 7 8 8 8 8 8 8 9 9 10 10 12 12 12 11 10 10 10 11 10 9 9 10
3 3 3 4 4 4 5 5 5 5 5 6 7 7 7 7 8 6 7 8 8 9 10 9 9 10 10 9 8 7 9 10 11 11 12 12 11 11 10 10 11 11
2 2 3 4 4 4 4 5 5 5 6 5 5 8 8 7 8 8 7 10 9 9 9 9 9 8 9 9 9 9 9 9 10 10 10 11 12 13 11 9 10 11
2 3 3 3 4 4 4 4 5 5 6 6 6 7 8 9 8 9 9 8 10 9 9 10 10 9 9 9 9 9 9 10 11 12 12 11 11 11 12 12 11 11
3 2 3 3 3 4 4 5 5 6 6 6 6 8 8 8 9 10 10 8 9 9 9 9 10 10 10 10 9 10 11 11 11 12 12 12 12 12 11 11 11 11
3 3 3 4 4 5 6 6 6 6 6 7 6 7 7 8 8 8 10 11 10 9 10 10 10 10 8 9 11 13 12 13 13 13 13 13 13 13 12 12 11 10
2 3 3 4 5 6 6 7 7 8 8 8 8 7 7 7 7 8 8 10 11 10 9 9 9 8 13 22 19 14 14 12 12 12 13 13 13 14 13 13 12 12
2 3 3 4 5 5 4 5 8 7 7 6 6 6 7 7 8 9 8 9 10 11 11 10 9 9 20 21 22 24 17 12 12 12 13 13 13 12 14 13 12 11
3 4 5 5 5 5 5 5 5 6 6 6 7 7 7 6 8 8 9 9 9 10 10 10 10 14 21 22 23 24 21 16 14 14 13 14 14 16 15 13 13 12
4 4 4 4 4 5 6 6 7 7 7 8 8 7 7 7 9 9 9 9 9 11 12 11 10 16 21 23 23 23 24 21 14 14 15 15 15 15 15 15 14 14
3 3 3 4 4 5 5 7 7 7 6 6 6 7 7 8 7 8 8 9 9 11 12 11 11 16 23 24 24 25 24 21 15 15 14 15 15 15 14 15 15 15
4 3 4 4 4 5 5 5 6 6 6 6 6 7 8 8 8 9 8 8 9 10 11 12 10 21 23 25 24 25 25 22 14 14 13 13 14 14 14 15 15 14
3 4 4 4 5 5 5 6 5 5 7 7 6 6 5 6 7 6 9 10 9 10 11 12 11 21 23 24 25 25 27 16 13 13 13 13 13 13 14 13 13 14
3 3 4 4 4 6 6 6 6 6 5 4 7 6 7 7 7 8 8 9 10 9 11 12 11 17 23 24 25 27 21 12 13 11 12 13 13 14 14 13 13 13
2 2 4 4 4 5 7 6 5 5 5 4 6 8 8 7 8 9 8 8 10 11 10 12 12 16 24 24 25 25 22 14 11 12 13 14 13 14 12 12 14 22
2 2 3 4 5 6 5 7 6 6 6 5 6 6 8 7 8 8 9 8 8 10 15 16 12 15 22 24 26 25 20 13 11 10 10 11 13 12 12 12 13 15
2 3 4 4 6 6 5 6 6 6 6 6 6 6 7 7 7 8 10 10 9 9 10 10 12 12 14 25 24 25 26 16 11 11 11 14 13 12 12 11 11 12
Wind_Direction
59 57 58 55 52 48 37 32 19 30 22 16 22 359 3 342 353 3 356 359 1 2 359 357 357 358 357 357 1 355 359 349 347 348 344 341 339 340 328 320 315 301
57 62 64 65 55 44 33 36 19 31 15 14 4 350 338 346 345 357 351 352 354 353 351 353 353 352 352 352 350 352 346 350 344 346 345 338 334 333 320 315 307 301
64 64 63 61 55 32 20 7 11 0 9 348 343 351 341 339 338 341 345 346 344 343 344 344 343 342 343 341 344 345 344 340 341 339 336 324 319 322 314 315 310 300
89 91 77 65 58 37 10 18 359 355 341 355 355 333 334 328 330 331 336 342 341 336 335 337 334 332 332 332 335 336 332 329 325 332 330 323 318 305 302 302 297 302
55 47 42 40 34 30 16 12 3 358 360 346 337 338 344 342 337 328 328 328 330 327 331 330 328 325 323 325 327 325 324 321 324 328 326 320 317 323 314 310 301 295
39 54 63 42 30 34 18 14 358 358 352 356 350 344 349 350 350 350 348 348 346 344 335 327 322 318 321 319 321 314 310 315 311 315 313 313 312 315 315 312 308 303
25 25 21 23 16 12 15 3 360 357 356 346 340 350 349 348 347 345 343 341 339 340 341 340 341 339 342 335 329 321 317 306 306 309 307 305 305 306 308 308 305 302
358 353 18 24 17 6 6 359 353 351 339 346 346 329 344 333 335 334 335 333 333 331 330 330 329 330 333 338 336 334 329 326 320 313 305 301 302 299 301 300 297 298
353 18 13 18 10 358 0 351 349 340 341 343 331 327 322 319 317 320 317 318 319 321 325 327 329 329 329 331 328 326 323 321 322 318 312 308 305 298 295 294 290 289
18 6 15 0 6 352 356 347 344 340 335 340 331 334 336 334 339 330 331 331 328 325 324 321 319 315 316 317 317 317 316 314 314 312 308 303 300 300 299 295 288 288
0 359 6 358 360 355 351 346 344 342 343 342 337 341 340 334 332 337 328 330 329 324 321 321 317 316 313 309 304 299 296 297 299 303 303 300 295 291 290 292 291 285
349 356 4 358 359 357 354 350 347 352 349 349 349 341 340 338 334 336 337 328 328 323 319 316 313 313 308 304 302 300 295 292 288 284 283 285 291 293 291 284 283 286
3 359 2 4 360 355 354 356 358 354 354 350 349 343 337 336 336 333 331 327 322 323 322 321 320 317 314 308 305 302 297 293 291 288 285 284 279 279 282 286 284 282
5 345 12 5 356 5 3 1 358 354 352 346 344 341 339 338 335 332 326 326 322 323 322 326 322 319 317 316 313 312 306 298 295 292 291 288 286 284 282 279 279 281
353 4 9 5 4 5 5 360 354 347 344 344 340 337 336 332 329 329 327 326 326 327 327 325 320 316 319 320 316 310 307 304 302 298 297 295 292 288 285 282 280 277
2 12 9 2 10 4 3 352 347 344 342 340 339 336 333 328 332 335 329 328 328 325 324 321 316 317 317 316 313 310 309 305 299 296 294 292 291 291 286 283 280 280
28 13 10 11 7 2 351 349 344 341 337 334 334 336 333 337 337 331 335 330 324 322 321 318 316 316 315 314 313 310 307 301 296 292 290 288 286 286 289 290 289 286
19 12 9 4 360 352 347 344 340 338 336 334 333 334 336 335 333 332 329 325 322 319 314 313 312 311 312 310 309 307 306 303 299 297 297 294 294 294 293 295 294 291
21 19 0 354 351 347 340 342 341 337 337 336 333 330 328 333 331 328 323 324 319 316 313 310 305 308 308 307 306 306 306 304 298 295 294 294 296 297 297 298 301 301
21 7 357 346 344 342 342 339 339 332 327 321 319 325 327 324 323 319 319 317 316 311 307 307 303 306 306 306 308 307 306 305 298 298 296 296 298 298 298 298 299 300
8 357 348 340 341 338 336 330 324 318 318 319 322 323 324 322 322 320 315 312 308 305 301 301 301 305 307 308 308 308 307 306 302 301 299 297 296 294 291 291 291 292
2 347 340 335 329 328 323 316 313 309 314 317 315 311 303 306 303 305 305 305 301 300 299 297 299 306 307 308 308 308 309 307 305 300 296 293 292 293 294 294 294 293
352 337 324 319 318 315 311 308 310 309 307 309 308 307 308 308 303 301 300 299 299 296 297 295 295 305 307 308 309 309 310 303 300 298 297 296 292 293 292 292 292 292
325 315 304 303 305 301 300 300 300 297 298 307 304 307 304 300 300 298 291 291 293 294 293 294 296 303 307 307 309 308 306 303 298 290 289 292 292 290 291 290 291 292
295 288 287 290 290 288 292 296 299 298 299 299 289 289 291 297 296 293 292 288 284 286 293 296 295 300 303 305 306 305 304 295 291 285 280 282 291 289 285 282 280 281
276 274 275 279 282 286 285 283 289 296 293 293 290 286 291 294 291 289 292 291 290 289 289 290 293 292 295 302 303 302 301 298 289 289 286 284 281 278 283 275 268 264